Volver al catálogo

COSMOS 292

ActivoMilitarLEO
NORAD 4070·PAYLOAD·🇷🇺 Russia

Lanzado Aug 13, 1969 desde Plesetsk Cosmodrome

Loading…

Próximos Pases (próximas 24 horas)

TLE

ActualizadoSource: Space-Track

Época: Sep 14, 2026, 15:37 UTC

1 04070U 69070A   26257.65110672  .00000164  00000-0  44310-4 0  9990
2 04070  74.0476 135.8473 0008666  68.3007 291.9079 14.55492192 19146

Sigue COSMOS 292 en tiempo real con AllMySat

Download on the App Store